This is the latest recevied weather packets stored in our database for station/object NO3U. If no packets are shown the sender has not sent any weather packets the latest 10 day(s).
| Time | Temp. | Humidity | Pressure | Rain* | Wind** | Luminosity | Snow |
|---|---|---|---|---|---|---|---|
| 1777400268 | 16.67° C | 90% | 1014.7 hPa | 0 mm | - | 112 W/m² | - |
| 1777399963 | 16.11° C | 90% | 1014.7 hPa | 0 mm | - | 113 W/m² | - |
| 1777399660 | 16.11° C | 90% | 1014.8 hPa | 0 mm | - | 125 W/m² | - |
| 1777399357 | 16.11° C | 90% | 1014.7 hPa | 0 mm | - | 106 W/m² | - |
| 1777399055 | 16.11° C | 90% | 1014.6 hPa | 0 mm | - | 104 W/m² | - |
| 1777398752 | 16.11° C | 90% | 1014.6 hPa | 0 mm | - | 104 W/m² | - |
| 1777398449 | 15.56° C | 90% | 1014.4 hPa | 0 mm | - | 96 W/m² | - |
| 1777398146 | 15.56° C | 90% | 1014.6 hPa | 0 mm | - | 181 W/m² | - |
| 1777397843 | 15.56° C | 90% | 1014.5 hPa | 0 mm | - | 108 W/m² | - |
| 1777397538 | 15.56° C | 90% | 1014.4 hPa | 0 mm | - | 122 W/m² | - |
| 1777397234 | 15.56° C | 90% | 1014.3 hPa | 0 mm | - | 126 W/m² | - |
| 1777396931 | 15° C | 91% | 1014.4 hPa | 0 mm | - | 96 W/m² | - |
| 1777396628 | 15° C | 90% | 1014.5 hPa | 0 mm | - | 109 W/m² | - |
| 1777396325 | 15° C | 90% | 1014.6 hPa | 0 mm | - | 119 W/m² | - |
| 1777396022 | 15° C | 90% | 1014.7 hPa | 0 mm | - | 86 W/m² | - |
| 1777395721 | 15° C | 90% | 1014.7 hPa | 0 mm | - | 169 W/m² | - |
| 1777395417 | 15° C | 90% | 1014.7 hPa | 0 mm | - | 150 W/m² | - |
| 1777395115 | 15° C | 90% | 1014.6 hPa | 0 mm | - | 161 W/m² | - |
| 1777394812 | 15° C | 91% | 1014.6 hPa | 0 mm | - | 145 W/m² | - |
| 1777394508 | 15° C | 90% | 1014.7 hPa | 0 mm | - | 135 W/m² | - |
| 1777394205 | 15° C | 90% | 1014.5 hPa | 0 mm | - | 127 W/m² | - |
| 1777393900 | 15° C | 90% | 1014.7 hPa | 0 mm | - | 106 W/m² | - |
| 1777393599 | 14.44° C | 91% | 1014.6 hPa | 0 mm | - | 81 W/m² | - |
| 1777393290 | 14.44° C | 90% | 1014.6 hPa | 0 mm | - | 110 W/m² | - |
| 1777392986 | 14.44° C | 90% | 1014.6 hPa | 0 mm | - | 89 W/m² | - |
* Rain latest hour (hover to see other rain measurements)
** Current wind speed in m/s (hover to see current wind gust speed)